Regional Weather Roundup
Issued by NWS

Home | Current Version | Previous Version | Graphics & Text | Print | Product List | Glossary On
Versions: 1 2 3 4 5 6 7 8 9 10 11 12 13 14 15 16 17 18 19 20 21 22 23 24 25 26 27 28 29 30 31 32 33 34 35 36 37 38 39 40 41 42 43 44 45 46 47 48 49 50
000
ASUS43 KDTX 040601
RWRMI
MICHIGAN HOURLY REGIONAL WEATHER ROUNDUP
NATIONAL WEATHER SERVICE DETROIT/PONTIAC MI
200 AM EDT WED MAY 04 2016

NOTE: "FAIR" INDICATES FEW OR NO CLOUDS BELOW 12,000 FEET WITH NO
SIGNIFICANT WEATHER AND/OR OBSTRUCTION TO VISIBILITY.

MIZ047>049-052>055-059>063-066>070-074>076-081>083-040700-
SOUTHEAST LOWER MICHIGAN

CITY           SKY/WX    TMP DP  RH WIND       PRES   REMARKS
ADRIAN         CLOUDY    50  44  80 SW8       29.72F
6HR MIN TEMP:  50; 6HR MAX TEMP:  58;

ALMA           CLOUDY    53  37  54 W9        29.64F
ANN ARBOR      CLOUDY    48  42  80 S5        29.70F
BAD AXE        CLOUDY    50  43  77 S8        29.66F
CARO           MOCLDY    53  38  55 S6        29.65F
DETROIT CITY   CLEAR     51  43  74 SW8       29.72F
6HR MIN TEMP:  50; 6HR MAX TEMP:  57;

DETROIT        MOCLDY    50  42  74 S7        29.72F
6HR MIN TEMP:  50; 6HR MAX TEMP:  57;

FLINT          CLOUDY    56  38  50 S8        29.67F
6HR MIN TEMP:  55; 6HR MAX TEMP:  63;

GROSSE ILE     CLEAR     54  45  71 S7        29.71F
HILLSDALE      MOCLDY    52  38  59 S7        29.70F
HOWELL         CLOUDY    53  38  57 S10       29.68F

CITY           SKY/WX    TMP DP  RH WIND       PRES   REMARKS
JACKSON        CLOUDY    53  42  66 SW8       29.69F
6HR MIN TEMP:  50; 6HR MAX TEMP:  61; 6HR PCP:  0.02;

LAMBERTVILLE   CLEAR     51  45  78 S5        29.73F
6HR MIN TEMP:  51; 6HR MAX TEMP:  61;

LANSING        CLOUDY    53  39  59 S7        29.66F
6HR MIN TEMP:  51; 6HR MAX TEMP:  61; 6HR PCP:  0.02;

LAPEER         FAIR      52  41  67 S8        29.68F
6HR MIN TEMP:  52; 6HR MAX TEMP:  58;

MASON          CLOUDY    53  39  60 S6        29.67F
MONROE         PTCLDY    50  44  80 SW6       29.72F
6HR MIN TEMP:  49; 6HR MAX TEMP:  57;

MT. CLEMENS    CLEAR     44  44 100 S8        29.69F
6HR MIN TEMP:  44; 6HR MAX TEMP:  55;

PONTIAC        PTCLDY    51  42  71 S6        29.68F
6HR MIN TEMP:  50; 6HR MAX TEMP:  61;

PORT HOPE        N/A     54  42  64 VRB7      29.64F
6HR MIN TEMP:  54; 6HR MAX TEMP:  59;

PORT HURON     CLEAR     46  43  87 S6        29.71F
TRI CITIES     MOCLDY    55  37  50 S8        29.64F
6HR MIN TEMP:  55; 6HR MAX TEMP:  64;

MIDLAND        FAIR      53  37  54 CALM      29.63S
6HR MIN TEMP:  52; 6HR MAX TEMP:  64;

TROY           PTCLDY    52  42  68 S6        29.72F
SAGINAW HB     CLOUDY    54  36  50 S8        29.64F
$$
MIZ043>046-050>051-056>058-064>065-071>073-077>080-040700-
SOUTHWEST LOWER MICHIGAN

CITY           SKY/WX    TMP DP  RH WIND       PRES   REMARKS
BATTLE CREEK   LGT RAIN  54  43  66 SW20G26   29.68F
6HR MIN TEMP:  54; 6HR MAX TEMP:  59; 6HR PCP: TRACE;

BENTON HARBOR  MOCLDY    56  43  61 S7        29.64F
6HR MIN TEMP:  56; 6HR MAX TEMP:  62; 6HR PCP:  0.02;

BIG RAPIDS     LGT RAIN  50  40  67 CALM      29.62F
6HR MIN TEMP:  50; 6HR MAX TEMP:  59;

COLDWATER      CLOUDY    55  41  60 S7        29.68F
6HR MIN TEMP:  53; 6HR MAX TEMP:  59;

FREMONT        RAIN      48  46  93 CALM      29.62S
HOLLAND        CLOUDY    52  45  77 CALM      29.64F
6HR MIN TEMP:  50; 6HR MAX TEMP:  60; 6HR PCP:  0.02;

GRAND RAPIDS   PTCLDY    54  40  59 SW8       29.65S
6HR MIN TEMP:  54; 6HR MAX TEMP:  62; 6HR PCP: TRACE;

IONIA          FAIR      53  38  57 S10       29.63F
6HR MIN TEMP:  53; 6HR MAX TEMP:  60;

KALAMAZOO      CLOUDY    51  44  77 S6        29.67F
6HR MIN TEMP:  51; 6HR MAX TEMP:  61; 6HR PCP:  0.04;

LUDINGTON      RAIN      46  45  97 NW7       29.65F
6HR MIN TEMP:  45; 6HR MAX TEMP:  56; 6HR PCP:  0.02;

MARSHALL       CLOUDY    55  41  58 S8G16     29.68F
6HR MIN TEMP:  55; 6HR MAX TEMP:  59;

MOUNT PLEASANT CLOUDY    50  39  65 CALM      29.63F
6HR MIN TEMP:  50; 6HR MAX TEMP:  62;

MUSKEGON       CLOUDY    50  42  74 SE5       29.62F
6HR MIN TEMP:  49; 6HR MAX TEMP:  56; 6HR PCP: TRACE;

$$
MIZ016>042-040700-
NORTHERN LOWER MICHIGAN

CITY           SKY/WX    TMP DP  RH WIND       PRES   REMARKS
ALPENA         CLOUDY    49  42  77 CALM      29.65F
6HR MIN TEMP:  48; 6HR MAX TEMP:  62;

BEAVER ISLAND  CLOUDY    44  43  97 W7        29.65S
6HR MIN TEMP:  42; 6HR MAX TEMP:  47;

BELLAIRE       CLOUDY    48  46  95 CALM      29.64S
6HR MIN TEMP:  48; 6HR MAX TEMP:  56;

CADILLAC       CLOUDY    48  43  85 SW3       29.61F
CHARLEVOIX     CLOUDY    48  48  99 W5        29.67S
FRANKFORT      RAIN      45  44  96 NW3       29.65S
GAYLORD        LGT RAIN  47  43  86 CALM      29.62F
6HR MIN TEMP:  47; 6HR MAX TEMP:  58; 6HR PCP: TRACE;

HARBOR SPRINGS CLOUDY    45  44  97 CALM      29.63F FOG
HOUGHTON LAKE  CLOUDY    50  41  71 CALM      29.63F
6HR MIN TEMP:  48; 6HR MAX TEMP:  60;

MANISTEE       CLOUDY    45  39  81 W6        29.65S
OSCODA         PTCLDY    48  40  74 E3        29.65S
6HR MIN TEMP:  48; 6HR MAX TEMP:  63;

PELLSTON       CLOUDY    47  44  90 CALM      29.64F
6HR MIN TEMP:  46; 6HR MAX TEMP:  51; 6HR PCP:  0.08;

ROGERS CITY    RAIN      48  44  86 CALM      29.65F
TRAVERSE CITY  CLOUDY    49  45  86 CALM      29.63F
6HR MIN TEMP:  49; 6HR MAX TEMP:  64; 6HR PCP: TRACE;

$$
MIZ007>008-015-040700-
EASTERN UPPER MICHIGAN

CITY           SKY/WX    TMP DP  RH WIND       PRES   REMARKS
KINROSS          N/A     45  45 100 CALM      29.63S
6HR MIN TEMP:  45; 6HR MAX TEMP:  50;

MACKINAC ISLAN CLOUDY    45  45 100 W5        29.63S
6HR MIN TEMP:  44; 6HR MAX TEMP:  46; 6HR PCP:  0.10;

NEWBERRY       CLOUDY    42  41  97 NW7       29.64S
6HR MIN TEMP:  42; 6HR MAX TEMP:  49; 6HR PCP:  0.02;

S. S. MARIE    CLOUDY    48  45  89 W3        29.63S
6HR MIN TEMP:  46; 6HR MAX TEMP:  49; 6HR PCP:  0.01;

MUNISING         N/A     41  37  86 NW12      29.71S
6HR MIN TEMP:  40; 6HR MAX TEMP:  49;

$$
MIZ004>006-011>014-085-040700-
CENTRAL UPPER MICHIGAN

CITY           SKY/WX    TMP DP  RH WIND       PRES   REMARKS
MANISTIQUE     CLOUDY    40  39  95 N9        29.67S WCI  34
6HR MIN TEMP:  40; 6HR MAX TEMP:  48;

ESCANABA       PTCLDY    41  36  81 N8        29.71S
6HR MIN TEMP:  41; 6HR MAX TEMP:  52;

MENOMINEE      CLOUDY    44  40  85 N8        29.72S
6HR MIN TEMP:  44; 6HR MAX TEMP:  52;

SAWYER-GWINN   CLOUDY    38  36  89 N13G20    29.72R WCI  31
6HR MIN TEMP:  38; 6HR MAX TEMP:  46; 6HR PCP:  0.01;

$$
MIZ001>003-009>011-084-040700-
WESTERN UPPER MICHIGAN

CITY           SKY/WX    TMP DP  RH WIND       PRES   REMARKS
IRON MOUNTAIN  CLOUDY    41  35  79 N13       29.73R
6HR MIN TEMP:  40; 6HR MAX TEMP:  53; 6HR PCP:  0.05;

HOUGHTON       CLOUDY    42  35  76 N17G23    29.78R
6HR MIN TEMP:  41; 6HR MAX TEMP:  49; 6HR PCP: TRACE;

COPPER HARBOR    N/A     40  37  89 N13       29.77S WCI  32
6HR MIN TEMP:  40; 6HR MAX TEMP:  48;

IRONWOOD         N/A     43  37  81 CALM      29.81S
6HR MIN TEMP:  43; 6HR MAX TEMP:  55;

$$

ABBREVIATIONS USED IN REMARKS
   TC - TEMPERATURE IN CELSIUS
  WCI - WIND CHILL INDEX
   HX - HEAT INDEX
  VSB - VISIBILITY




USA.gov is the U.S. government's official web portal to all federal, state and local government web resources and services.